This is the latest recevied weather packets stored in our database for station/object WA5TET. If no packets are shown the sender has not sent any weather packets the latest 10 day(s).
| Time | Temp. | Humidity | Pressure | Rain* | Wind** | Luminosity | Snow |
|---|---|---|---|---|---|---|---|
| 1788568301 | 35° C | 38% | 1010.1 hPa | 0 mm | - | 19 W/m² | - |
| 1788567997 | 35° C | 38% | 1010.1 hPa | 0 mm | - | 23 W/m² | - |
| 1788567691 | 35° C | 38% | 1010 hPa | 0 mm | - | 28 W/m² | - |
| 1788567387 | 35.56° C | 38% | 1009.8 hPa | 0 mm | - | 32 W/m² | - |
| 1788567086 | 35.56° C | 38% | 1009.9 hPa | 0 mm | - | 37 W/m² | - |
| 1788566781 | 35.56° C | 38% | 1009.9 hPa | 0 mm | - | 42 W/m² | - |
| 1788566477 | 35.56° C | 38% | 1010 hPa | 0 mm | - | 45 W/m² | - |
| 1788566177 | 35.56° C | 38% | 1010.1 hPa | 0 mm | - | 49 W/m² | - |
| 1788565876 | 35.56° C | 39% | 1010.1 hPa | 0 mm | - | 53 W/m² | - |
| 1788565571 | 35.56° C | 39% | 1010.1 hPa | 0 mm | - | 54 W/m² | - |
| 1788565267 | 36.11° C | 39% | 1009.8 hPa | 0 mm | - | 59 W/m² | - |
| 1788564962 | 36.11° C | 38% | 1009.9 hPa | 0 mm | - | 63 W/m² | - |
| 1788564658 | 36.11° C | 39% | 1009.9 hPa | 0 mm | - | 72 W/m² | - |
| 1788564354 | 36.11° C | 39% | 1009.8 hPa | 0 mm | - | 83 W/m² | - |
| 1788564051 | 36.11° C | 38% | 1009.9 hPa | 0 mm | - | 94 W/m² | - |
| 1788563746 | 36.67° C | 38% | 1010 hPa | 0 mm | - | 94 W/m² | - |
| 1788563441 | 36.67° C | 38% | 1009.8 hPa | 0 mm | - | 102 W/m² | - |
| 1788563140 | 36.67° C | 38% | 1010.1 hPa | 0 mm | - | 106 W/m² | - |
| 1788562836 | 37.22° C | 37% | 1009.9 hPa | 0 mm | - | 102 W/m² | - |
| 1788562534 | 37.22° C | 37% | 1010 hPa | 0 mm | - | 204 W/m² | - |
| 1788562233 | 37.78° C | 37% | 1009.7 hPa | 0 mm | - | 309 W/m² | - |
| 1788561929 | 37.22° C | 37% | 1009.7 hPa | 0 mm | - | 362 W/m² | - |
| 1788561628 | 37.22° C | 36% | 1009.9 hPa | 0 mm | - | 362 W/m² | - |
| 1788561327 | 37.22° C | 36% | 1010 hPa | 0 mm | - | 393 W/m² | - |
| 1788561024 | 37.22° C | 36% | 1010.2 hPa | 0 mm | - | 436 W/m² | - |
* Rain latest hour (hover to see other rain measurements)
** Current wind speed in m/s (hover to see current wind gust speed)